Weather in Novyy Port

Russia / Yamalo-Nenets Autonomous Okrug     67°41′37″N   72°53′48″E
temp.,
°C
wind,
m/s
gust,
m/s
humid.,
%
clouds,
%
prec.,
mm/h
press.,
hPa
HPBL,
m
28 july, wed
wed2823:00+6nne22803 0.0 100210
02:00+6e22823 0.0 100210
05:00+7e22775 0.0 100233
08:00+9sse117097 0.0 1003277
11:00+9e337199 0.0 1003366
14:00+9ene567388 0.0 1003264
17:00+10ne786389 0.0 1003184
20:00+8ne71169100 0.0 1002152
29 july, thu
thu2923:00+7ene4680100 0.4 100375
02:00+7ese6987100 0.3 1002130
05:00+7s339786 0.6 100365
08:00+6s459459 0.1 1004147
11:00+8se228186 0.1 1005159
14:00+10ne456760 0.0 1004318
17:00+10ne8127899 0.1 1002190
20:00+10e7139489 1.3 1001150
30 july, fri
fri3023:00+8ese4610093 4.9 100077
02:00+7ene5810086 0.2 99989
05:00+8e7129987 0.8 997135
08:00+9e8139545 1.1 997228
11:00+6sse9159766 1.1 999373
14:00+9sse6118547 0.0 1002439
17:00+9ese467594 0.0 1003245
20:00+9sse7137310 0.0 1003202
31 july, sat
sat3123:00+8se597848 0.0 1003149
02:00+7ese59877 0.0 1003111
05:00+6se59925 0.0 1003133
08:00+7se588639 0.0 1003194
11:00+8se4785100 0.0 1002313
14:00+7s479098 0.0 1002252
17:00+6s5892100 0.0 1002174
20:00+6s599396 0.0 1001164
1 august, sun
sun123:00+7ssw61093100 0.1 1002218
02:00+7wsw4796100 0.1 1002136
05:00+8wsw589257 0.1 1004141
08:00+10sw55785 0.0 1004304
11:00+9s5578100 0.0 1005297
14:00+9se3475100 0.0 1004213
17:00+9ese5678100 0.0 100490
20:00+8se5899100 1.0 1003100